CZ-4 DEB

Satellite information

Favourite Embed

Satellite Type and Status

DEBRISIN ORBIT

Key statistics

Satellite CZ-4 DEB at a glance.

Uptime

12886

Days in orbit

Revolutions

≈ 14.0

Per day

Orbit

SSO

Sun Synchronous Orbit

Inclination

99.4

Latest

Satellite identification and parameters

Extended collection of information and parameters for CZ-4 DEB.

Object identification

Identified? True

Debris? True

Object name: CZ-4 DEB

International designator: 1990-081AP

Object number (NORAD): 20879

Object ID (CCSDS): 20879

Country: PEOPLES REPUBLIC OF CHINA (PRC)

Current information (Y/N): Y

RCS size: MEDIUM

Orbital parameters

Period: 102.508 minutes

Inclination: 99.4202 deg

SMA: 7255.466 km

Apoapsis: 949.134 km

Periapsis: 805.528 km

RAAN: 178.8627 deg

Eccentricy: 0.00989642

Argument of periapsis: 320.3917 deg

Mean anomaly: 68.5626 deg

Mean motion: 14.0476867 rev/day

Mean motion (dot): 0.00002304 rev/day2

B* drag term: 0.001404305 1/REarth

Two-line elements (TLE)

Creation date: Dec. 14, 2025, 3:07 a.m.

Reference frame: TEME

Reference center: EARTH

Epoch: Dec. 13, 2025, 11:31 a.m. UTC

TLE line 0: 0 CZ-4 DEB

TLE line 1: 1 20879U 90081AP 25347.48050759 .00002304 00000-0 14043-2 0 9996

TLE line 2: 2 20879 99.4202 178.8627 0098964 320.3917 68.5626 14.04768670615574

Live tracking on map

Real-time ground track for satellite CZ-4 DEB.

In-orbit conjunctions

A list of the most updated potential collisions computed for object CZ-4 DEB.

Target Orbit TCA Probability of collision Miss distance Type
FENGYUN 1C DEB SSO 2025-11-12 20:04:36 0.0001827094 75.0 (m) DEBRIS
ATLAS H R/B LEO 2025-01-30 10:11:07 0.0001332481 376.0 (m) ROCKET BODY
METEOR 2-12 DEB LEO 2025-01-02 21:55:55 0.0001359485 505.0 (m) DEBRIS
COSMOS 1579 COOLANT LEO 2024-11-17 03:42:36 0.0002240897 554.0 (m) DEBRIS
FENGYUN 1C DEB SSO 2024-11-15 16:36:56 0.0001698731 840.0 (m) DEBRIS

Associated space launch

Chinese polar orbiting meteorological satellite

CZ-4 DEB was lifted into orbit during the mission ‘Long March 4A | Feng Yun 1B’, on board a Long March 4A space rocket.

The launch took place on Sept. 3, 1990, 12:53 a.m. from Launch Complex 7.

For more information about the launch, click the button.

Launch to space Long March 4A | Feng Yun 1B
Long March 4A | Feng Yun 1B

Agency: N/A

Status: Launch Successful

Launch date: Sept. 3, 1990, 12:53 a.m. UTC

Rocket: Long March 4A

Launch pad: Launch Complex 7

Location: Taiyuan Satellite Launch Center, People's Republic of China

...

Latest news about this satellite

There are no fresh news available about this satellite. Check back as we update our databases every day.


Newsletter sign-up

Weekly statistics, charts and insights to help you stay on top of the space industry.